Fort Myers, FL

5:39 PM EDT on September 21, 2017 (GMT -0400)
Page

Weather History for KFMY - May, 2013

Change the Weather History Date:

Saturday, May 11, 2013

  Actual Average Record
Temperature  
Mean Temperature 81 °F 78 °F  
Max Temperature 90 °F 89 °F 95 °F (2012)
Min Temperature 71 °F 68 °F 55 °F (1908)
Degree Days  
Heating Degree Days 0 0  
Month to date heating degree days 0 0  
Since 1 July heating degree days 201 287  
Cooling Degree Days 16 13  
Month to date cooling degree days 106 134  
Year to date cooling degree days 852 764  
Growing Degree Days 30 (Base 50)    
Moisture  
Dew Point 70 °F    
Average Humidity 75    
Maximum Humidity 93    
Minimum Humidity 41    
Precipitation  
Precipitation 0.00 in 0.06 in 3.89 in (1977)
Month to date precipitation 2.16 0.65  
Year to date precipitation 8.51 9.80  
Sea Level Pressure  
Sea Level Pressure 30.04 in    
Wind  
Wind Speed 7 mph (SSW)    
Max Wind Speed 17 mph    
Max Gust Speed 25 mph    
Visibility 10 miles    
Events      
T = Trace of Precipitation, MM = Missing Value Source: NWS Daily Summary

Daily Weather History Graph

Daily Weather History Graph

Search for Another Location

Airport or City:

Trip Planner

Search our weather history database for the weather conditions in past years. The results will help you decide how hot, cold, wet, or windy it might be!

Date:

Astronomy

May. 11, 2013 Rise Set
Actual Time 6:42 AM EDT 8:05 PM EDT
Civil Twilight 6:17 AM EDT 8:30 PM EDT
Nautical Twilight 5:47 AM EDT 9:00 PM EDT
Astronomical Twilight 5:16 AM EDT 9:31 PM EDT
Moon 7:52 AM EDT (5/11) 9:41 PM EDT (5/11)
Length of Visible Light 14h 12m
Length of Day
13h 23m
Waxing Crescent, 3% of the Moon is Illuminated
May 11
Waxing Crescent
May 18
First Quarter
May 25
Full
May 31
Last Quarter
Jun 8
New

Hourly Weather History & Observations

Time (EDT) Temp. Heat Index Dew Point Humidity Pressure Visibility Wind Dir Wind Speed Gust Speed Precip Events Conditions
12:53 AM 75.0 °F - 69.1 °F 82% 30.07 in 10.0 mi South 4.6 mph - N/A   Clear
1:53 AM 73.0 °F - 69.1 °F 87% 30.06 in 10.0 mi SE 3.5 mph - N/A   Scattered Clouds
2:13 AM 73.4 °F - 69.8 °F 88% 30.05 in 10.0 mi Calm Calm - N/A   Mostly Cloudy
2:53 AM 73.9 °F - 69.1 °F 85% 30.05 in 10.0 mi ESE 3.5 mph - N/A   Mostly Cloudy
3:53 AM 73.0 °F - 69.1 °F 87% 30.05 in 10.0 mi East 3.5 mph - N/A   Mostly Cloudy
4:26 AM 71.6 °F - 68.0 °F 88% 30.03 in 10.0 mi SE 4.6 mph - N/A   Scattered Clouds
4:53 AM 72.0 °F - 68.0 °F 87% 30.02 in 10.0 mi SE 6.9 mph - N/A   Clear
5:53 AM 71.1 °F - 68.0 °F 90% 30.02 in 10.0 mi ESE 4.6 mph - N/A   Clear
6:53 AM 71.1 °F - 69.1 °F 93% 30.04 in 10.0 mi Calm Calm - N/A   Clear
7:53 AM 73.9 °F - 70.0 °F 87% 30.05 in 10.0 mi SSE 3.5 mph - N/A   Clear
8:53 AM 78.1 °F - 72.0 °F 81% 30.06 in 10.0 mi SSE 3.5 mph - N/A   Clear
9:53 AM 82.9 °F 88.0 °F 72.0 °F 69% 30.06 in 10.0 mi SSW 8.1 mph - N/A   Partly Cloudy
10:53 AM 86.0 °F 89.4 °F 68.0 °F 55% 30.07 in 10.0 mi SSW 8.1 mph - N/A   Partly Cloudy
11:53 AM 87.1 °F 88.9 °F 64.9 °F 48% 30.06 in 10.0 mi SW 12.7 mph - N/A   Scattered Clouds
12:53 PM 89.1 °F 90.0 °F 63.0 °F 42% 30.04 in 10.0 mi SSW 12.7 mph 20.7 mph N/A   Scattered Clouds
1:53 PM 88.0 °F 91.4 °F 68.0 °F 51% 30.04 in 10.0 mi SSW 10.4 mph 19.6 mph N/A   Clear
2:53 PM 89.1 °F 93.7 °F 69.1 °F 52% 30.01 in 10.0 mi WSW 13.8 mph - N/A   Clear
3:53 PM 87.1 °F 92.0 °F 70.0 °F 57% 30.01 in 10.0 mi SW 11.5 mph - N/A   Clear
4:53 PM 86.0 °F 92.2 °F 72.0 °F 63% 30.01 in 10.0 mi WSW 12.7 mph 20.7 mph N/A   Clear
5:53 PM 84.9 °F 90.7 °F 72.0 °F 65% 30.01 in 10.0 mi SW 10.4 mph 19.6 mph N/A   Clear
6:53 PM 82.9 °F 88.0 °F 72.0 °F 69% 30.00 in 10.0 mi WSW 11.5 mph - N/A   Partly Cloudy
7:53 PM 81.0 °F 85.2 °F 72.0 °F 74% 30.02 in 10.0 mi WSW 8.1 mph - N/A   Clear
8:53 PM 80.1 °F 84.5 °F 73.9 °F 81% 30.04 in 10.0 mi SW 5.8 mph - N/A   Clear
9:53 PM 79.0 °F - 73.9 °F 84% 30.04 in 10.0 mi SW 3.5 mph - N/A   Clear
10:53 PM 78.1 °F - 73.9 °F 87% 30.05 in 10.0 mi SW 3.5 mph - N/A   Clear
11:53 PM 77.0 °F - 73.9 °F 90% 30.06 in 10.0 mi Calm Calm - N/A   Clear